Liberia, Costa Rica

12:02 PM CST on September 22, 2017 (GMT -0600)
Daniel Oduber Quiros International

Weather History for MRLB - September, 2013

Change the Weather History Date:

Wednesday, September 11, 2013

  Actual Average Record
Temperature  
Mean Temperature 80 °F -  
Max Temperature 86 °F 85 °F 91 °F (2001)
Min Temperature 75 °F 73 °F 71 °F (2006)
Cooling Degree Days 16    
Growing Degree Days 30 (Base 50)    
Moisture  
Dew Point 74 °F    
Average Humidity 84    
Maximum Humidity 94    
Minimum Humidity 66    
Precipitation  
Precipitation 0.24 in - - ()
Sea Level Pressure  
Sea Level Pressure 29.89 in    
Wind  
Wind Speed 3 mph ()    
Max Wind Speed 9 mph    
Max Gust Speed -    
Visibility 5.6 miles    
Events Rain    
Averages and records for this station are not official NWS values.
T = Trace of Precipitation, MM = Missing Value Source: Averaged Metar Reports

Daily Weather History Graph

Daily Weather History Graph

Search for Another Location

Airport or City:

Trip Planner

Search our weather history database for the weather conditions in past years. The results will help you decide how hot, cold, wet, or windy it might be!

Date:

Astronomy

Sep. 11, 2013 Rise Set
Actual Time 5:32 AM CST 5:45 PM CST
Civil Twilight 5:10 AM CST 6:06 PM CST
Nautical Twilight 4:46 AM CST 6:30 PM CST
Astronomical Twilight 4:21 AM CST 6:55 PM CST
Moon 10:52 AM CST (9/11) 10:48 PM CST (9/11)
Length of Visible Light 12h 55m
Length of Day
12h 13m
Waxing Crescent, 39% of the Moon is Illuminated
Sep 11
Waxing Crescent
Sep 12
First Quarter
Sep 19
Full
Sep 26
Last Quarter
Oct 4
New

Hourly Weather History & Observations

Time (CST) Temp. Heat Index Dew Point Humidity Pressure Visibility Wind Dir Wind Speed Gust Speed Precip Events Conditions
6:00 AM 75 °F - 73 °F 91% 29.89 in 1 mi South 3.5 mph - -   Mist
6:00 AM 75.2 °F - 73.4 °F 94% 29.88 in 1.2 mi South 3.5 mph - N/A   Mostly Cloudy
6:15 AM 75.2 °F - 73.4 °F 94% 29.89 in 1.6 mi SSE 3.5 mph - N/A Rain Rain
7:00 AM 75.2 °F - 73.4 °F 94% 29.90 in 1.2 mi SSE 3.5 mph - N/A Rain Rain
7:14 AM 75.2 °F - 73.4 °F 94% 29.90 in 5.0 mi SE 3.5 mph - N/A Rain Light Rain
8:00 AM 75.2 °F - 73.4 °F 94% 29.91 in 6.2 mi SE 3.5 mph - N/A Rain Light Rain
9:00 AM 77 °F - 74 °F 88% 29.94 in 19 mi SE 3.5 mph - - Rain Light Rain
9:00 AM 77.0 °F - 73.4 °F 89% 29.92 in 5.0 mi SE 3.5 mph - N/A Rain Light Rain
10:00 AM 77.0 °F - 73.4 °F 89% 29.93 in 1.9 mi SSE 5.8 mph - N/A   Heavy Drizzle
10:10 AM 77.0 °F - 73.4 °F 89% 29.93 in 1.2 mi South 6.9 mph - N/A Rain Rain
10:31 AM 77.0 °F - 75.2 °F 94% 29.92 in 6.2 mi Calm Calm - N/A Rain Light Rain
11:00 AM 78.8 °F - 73.4 °F 83% 29.91 in 6.2 mi SSW 3.5 mph - N/A   Mostly Cloudy
12:00 PM 82 °F - 74 °F 72% 29.91 in 12 mi ESE 3.5 mph - -   Overcast
12:00 PM 82.4 °F 89.5 °F 75.2 °F 79% 29.89 in 6.2 mi ESE 3.5 mph - N/A   Mostly Cloudy
1:00 PM 84.2 °F 92.3 °F 75.2 °F 74% 29.87 in 6.2 mi South 3.5 mph - N/A   Mostly Cloudy
2:00 PM 86.0 °F 93.4 °F 73.4 °F 66% 29.83 in 6.2 mi WSW 4.6 mph - N/A   Scattered Clouds
3:00 PM 84.2 °F 92.3 °F 75.2 °F 74% 29.81 in 6.2 mi West 8.1 mph - N/A   Scattered Clouds
4:00 PM 82.4 °F 88.2 °F 73.4 °F 74% 29.82 in 6.2 mi West 9.2 mph - N/A Rain Light Rain
5:00 PM 82.4 °F 88.2 °F 73.4 °F 74% 29.84 in 6.2 mi WNW 3.5 mph - N/A   Mostly Cloudy
6:00 PM 82 °F - 74 °F 72% 29.87 in 6 mi Calm Calm - - Rain Light Rain
6:00 PM 82.4 °F 89.5 °F 75.2 °F 79% 29.86 in 6.2 mi Calm Calm - N/A Rain Light Rain
7:00 PM 78.8 °F - 75.2 °F 89% 29.87 in 6.2 mi Calm Calm - N/A   Mostly Cloudy
8:00 PM 78.8 °F - 75.2 °F 89% 29.89 in 6.2 mi Calm Calm - N/A   Mostly Cloudy